Location: Miami, Florida
(25.6830°N, 80.1700°W)
Time: 22:11:18
(UTC-04:00)

Vanguard 2 - All Passes

Search period start: 23 November 2017 00:00
Search period end: 03 December 2017 00:00
Orbit: 553 x 2939 km, 32.9° (Epoch: 23 November)

Date Brightness Start Highest point End Pass type
(mag) Time Alt. Az. Time Alt. Az. Time Alt. Az.
23 Nov - 01:43:41 10° WNW 01:51:36 58° N 02:04:58 10° E visible
23 Nov - 03:52:18 10° WNW 04:03:17 87° NNE 04:20:20 10° ESE visible
23 Nov - 06:02:13 10° WNW 06:15:32 51° SSW 06:32:28 10° SE visible
23 Nov - 08:17:22 10° WSW 08:27:47 19° SW 08:38:37 10° S daylight
23 Nov - 21:45:45 10° SW 21:50:08 66° SSE 21:56:42 10° ENE visible
23 Nov - 23:53:33 10° W 23:59:20 55° N 00:09:00 10° ENE night (unlit)
24 Nov - 02:01:54 10° WNW 02:10:07 62° NNE 02:23:58 10° E visible
24 Nov - 04:10:31 10° WNW 04:21:41 81° SSW 04:38:48 10° ESE visible
24 Nov - 06:21:00 10° W 06:33:51 40° SW 06:49:45 10° SSE visible
24 Nov - 08:40:07 10° WSW 08:46:12 13° SW 08:52:23 10° SSW daylight
24 Nov - 19:58:05 10° S 20:00:32 15° SE 20:03:15 10° ESE visible
24 Nov - 22:03:44 10° WSW 22:08:14 85° NNW 22:15:06 10° ENE night (unlit)
25 Nov - 00:11:51 10° WNW 00:17:49 51° N 00:27:44 10° ENE night (unlit)
25 Nov - 02:20:05 10° WNW 02:28:34 70° NNE 02:42:55 10° E visible
25 Nov - 04:28:46 10° WNW 04:40:02 68° SSW 04:56:58 10° SE visible
25 Nov - 06:40:11 10° W 06:52:12 31° SW 07:06:35 10° SSE visible
25 Nov - 20:14:57 10° SSW 20:18:22 27° SE 20:22:26 10° E visible
25 Nov - 22:21:54 10° W 22:26:28 63° NNW 22:33:29 10° ENE night (unlit)
26 Nov - 00:30:08 10° WNW 00:36:17 51° N 00:46:35 10° E night (unlit)
26 Nov - 02:38:13 10° WNW 02:46:57 80° NNE 03:01:44 10° ESE visible
26 Nov - 04:47:09 10° WNW 04:58:24 55° SSW 05:14:49 10° SE visible
26 Nov - 07:00:03 10° W 07:10:36 23° SW 07:22:46 10° S visible
26 Nov - 20:32:27 10° SW 20:36:17 47° SSE 20:41:02 10° ENE visible
26 Nov - 22:40:11 10° W 22:44:48 51° N 22:51:54 10° ENE night (unlit)
27 Nov - 00:48:21 10° WNW 00:54:44 54° N 01:05:30 10° E night (unlit)
27 Nov - 02:56:22 10° WNW 03:05:17 87° SSW 03:20:19 10° ESE visible
27 Nov - 05:05:44 10° W 05:16:46 43° SSW 05:32:18 10° SSE visible
27 Nov - 07:21:13 10° WSW 07:29:07 15° SW 07:37:47 10° S visible
27 Nov - 18:45:57 10° SSE 18:46:34 10° SE 18:47:10 10° SE daylight
27 Nov - 20:50:21 10° WSW 20:54:18 79° SSE 20:59:24 10° ENE visible
27 Nov - 22:58:30 10° WNW 23:03:12 45° N 23:10:26 10° ENE night (unlit)
28 Nov - 01:06:29 10° WNW 01:13:07 61° NNE 01:24:25 10° E night (unlit)
28 Nov - 03:14:32 10° WNW 03:23:37 73° SSW 03:38:40 10° SE visible
28 Nov - 05:24:38 10° W 05:35:11 33° SSW 05:49:22 10° SSE visible
28 Nov - 19:01:34 10° SSW 19:04:33 19° SSE 19:07:29 10° E visible
28 Nov - 21:08:28 10° WSW 21:12:27 69° NNW 21:17:40 10° ENE visible
28 Nov - 23:16:48 10° WNW 23:21:37 43° N 23:29:05 10° ENE night (unlit)
29 Nov - 01:24:35 10° WNW 01:31:26 71° NNE 01:43:16 10° ESE visible
29 Nov - 03:32:48 10° WNW 03:41:56 58° SSW 03:56:42 10° SE visible
29 Nov - 05:44:04 10° W 05:53:40 25° SSW 06:05:51 10° SSE visible
29 Nov - 19:18:49 10° SW 19:22:32 34° SSE 19:26:16 10° E visible
29 Nov - 21:26:44 10° W 21:30:42 49° NNW 21:35:56 10° ENE visible
29 Nov - 23:35:01 10° WNW 23:40:00 45° N 23:47:51 10° E night (unlit)
30 Nov - 01:42:40 10° WNW 01:49:42 85° NNE 02:01:57 10° ESE visible
30 Nov - 03:51:14 10° W 04:00:18 45° SSW 04:14:22 10° SE visible
30 Nov - 06:04:29 10° WSW 06:12:14 17° SSW 06:21:26 10° S visible
30 Nov - 19:36:34 10° SW 19:40:34 60° SSE 19:44:39 10° ENE visible
30 Nov - 21:45:05 10° WNW 21:49:00 40° N 21:54:14 10° ENE visible
30 Nov - 23:53:09 10° WNW 23:58:20 50° NNE 00:06:39 10° E night (unlit)
01 Dec - 02:00:47 10° WNW 02:07:57 78° SSW 02:20:24 10° ESE visible
01 Dec - 04:09:56 10° W 04:18:43 34° SSW 04:31:38 10° SSE visible
01 Dec - 06:28:01 10° SW 06:30:57 11° SSW 06:34:04 10° SSW visible
01 Dec - 17:47:29 10° SSW 17:50:34 17° SSE 17:53:15 10° ESE daylight
01 Dec - 19:54:38 10° WSW 19:58:40 82° NNW 20:02:52 10° ENE visible
01 Dec - 22:03:26 10° WNW 22:07:22 36° N 22:12:40 10° ENE night (unlit)
02 Dec - 00:11:15 10° WNW 00:16:36 59° NNE 00:25:28 10° E night (unlit)
02 Dec - 02:18:58 10° WNW 02:26:13 61° SSW 02:38:34 10° SE visible
02 Dec - 04:29:06 10° W 04:37:13 25° SSW 04:48:21 10° SSE visible
02 Dec - 18:04:30 10° SSW 18:08:42 28° SSE 18:12:12 10° E daylight
02 Dec - 20:12:54 10° W 20:16:49 54° NNW 20:21:00 10° ENE visible
02 Dec - 22:21:42 10° WNW 22:25:43 36° N 22:31:14 10° ENE night (unlit)
